Bellefontaine, OH

7:14 AM EDT on July 21, 2017 (GMT -0400)
Bellefontaine

Weather History for KEDJ - January, 2013

Change the Weather History Date:

Sunday, January 6, 2013

  Actual Average (KDLZ) Record (KDLZ)
Temperature  
Mean Temperature 30 °F -  
Max Temperature 33 °F 33 °F 66 °F (1946)
Min Temperature 26 °F 17 °F -10 °F (1981)
Degree Days  
Heating Degree Days 36    
Moisture  
Dew Point 28 °F    
Average Humidity 89    
Maximum Humidity 100    
Minimum Humidity 81    
Precipitation  
Precipitation 0.00 in - - ()
Sea Level Pressure  
Sea Level Pressure 30.05 in    
Wind  
Wind Speed 13 mph (SW)    
Max Wind Speed 18 mph    
Max Gust Speed 23 mph    
Visibility 8 miles    
Events      
Averages and records for this station are not official NWS values.
T = Trace of Precipitation, MM = Missing Value Source: NWS Daily Summary

Daily Weather History Graph

Daily Weather History Graph

Search for Another Location

Airport or City:

Trip Planner

Search our weather history database for the weather conditions in past years. The results will help you decide how hot, cold, wet, or windy it might be!

Date:

Astronomy

Jan. 06, 2013 Rise Set
Actual Time 7:58 AM EST 5:24 PM EST
Civil Twilight 7:27 AM EST 5:54 PM EST
Nautical Twilight 6:54 AM EST 6:28 PM EST
Astronomical Twilight 6:21 AM EST 7:01 PM EST
Moon 2:11 AM EST (1/6) 12:51 PM EST (1/6)
Length of Visible Light 10h 26m
Length of Day
9h 26m
Waning Crescent, 33% of the Moon is Illuminated
Jan 6
Waning Crescent
Jan 11
New
Jan 18
First Quarter
Jan 26
Full
Feb 3
Last Quarter

Hourly Weather History & Observations

Time (EST) Temp. Windchill Dew Point Humidity Pressure Visibility Wind Dir Wind Speed Gust Speed Precip Events Conditions
12:05 AM 32.0 °F 21.6 °F 28.4 °F 87% 30.08 in 10.0 mi SSW 15.0 mph 20.7 mph 0.00 in   Scattered Clouds
12:25 AM 32.0 °F 22.5 °F 28.4 °F 87% 30.08 in 10.0 mi SSW 12.7 mph - 0.00 in   Mostly Cloudy
12:45 AM 32.0 °F 23.0 °F 28.4 °F 87% 30.07 in 10.0 mi SSW 11.5 mph - 0.00 in   Mostly Cloudy
1:05 AM 32.0 °F 22.5 °F 28.4 °F 87% 30.06 in 10.0 mi SSW 12.7 mph - 0.00 in   Mostly Cloudy
1:25 AM 32.0 °F 23.0 °F 28.4 °F 87% 30.05 in 10.0 mi SSW 11.5 mph - 0.00 in   Mostly Cloudy
1:45 AM 32.0 °F 22.1 °F 28.4 °F 87% 30.05 in 10.0 mi SSW 13.8 mph - 0.00 in   Overcast
2:05 AM 33.8 °F 24.8 °F 28.4 °F 81% 30.04 in 10.0 mi SSW 12.7 mph - 0.00 in   Overcast
2:25 AM 33.8 °F 24.3 °F 28.4 °F 81% 30.03 in 10.0 mi SSW 13.8 mph - 0.00 in   Overcast
3:05 AM 33.8 °F 24.3 °F 28.4 °F 81% 30.03 in 10.0 mi SSW 13.8 mph 19.6 mph 0.00 in   Overcast
3:25 AM 33.8 °F 24.3 °F 28.4 °F 81% 30.02 in 10.0 mi SSW 13.8 mph - 0.00 in   Overcast
3:45 AM 33.8 °F 24.3 °F 28.4 °F 81% 30.02 in 10.0 mi SSW 13.8 mph - 0.00 in   Overcast
4:05 AM 33.8 °F 23.9 °F 30.2 °F 87% 30.01 in 10.0 mi SSW 15.0 mph - 0.00 in   Overcast
4:25 AM 33.8 °F 24.3 °F 30.2 °F 87% 30.00 in 10.0 mi SSW 13.8 mph - 0.00 in   Overcast
4:45 AM 33.8 °F 22.8 °F 30.2 °F 87% 29.99 in 10.0 mi SSW 18.4 mph - 0.00 in   Mostly Cloudy
5:05 AM 33.8 °F 23.9 °F 30.2 °F 87% 29.98 in 10.0 mi SSW 15.0 mph - 0.00 in   Overcast
5:25 AM 33.8 °F 24.3 °F 28.4 °F 81% 29.98 in 10.0 mi SSW 13.8 mph - 0.00 in   Overcast
5:45 AM 33.8 °F 24.3 °F 28.4 °F 81% 29.98 in 10.0 mi SSW 13.8 mph - 0.00 in   Overcast
6:05 AM 33.8 °F 24.8 °F 28.4 °F 81% 29.98 in 10.0 mi SSW 12.7 mph - 0.00 in   Overcast
6:25 AM 33.8 °F 24.3 °F 30.2 °F 87% 29.98 in 10.0 mi SSW 13.8 mph - 0.00 in   Overcast
6:45 AM 33.8 °F 23.9 °F 30.2 °F 87% 29.98 in 10.0 mi SSW 15.0 mph - 0.00 in   Overcast
7:05 AM 33.8 °F 24.3 °F 30.2 °F 87% 29.97 in 10.0 mi SSW 13.8 mph - 0.00 in   Overcast
7:25 AM 33.8 °F 24.3 °F 30.2 °F 87% 29.97 in 10.0 mi SSW 13.8 mph - 0.00 in   Overcast
7:45 AM 33.8 °F 24.8 °F 30.2 °F 87% 29.97 in 10.0 mi SSW 12.7 mph - 0.00 in   Overcast
8:05 AM 33.8 °F 24.8 °F 30.2 °F 87% 29.97 in 10.0 mi SSW 12.7 mph - 0.00 in   Overcast
8:25 AM 33.8 °F 25.3 °F 30.2 °F 87% 29.98 in 10.0 mi SSW 11.5 mph - 0.00 in   Overcast
8:45 AM 33.8 °F 24.8 °F 30.2 °F 87% 29.98 in 10.0 mi SSW 12.7 mph - 0.00 in   Overcast
9:05 AM 33.8 °F 23.9 °F 30.2 °F 87% 29.98 in 10.0 mi SSW 15.0 mph - 0.00 in   Overcast
9:25 AM 33.8 °F 23.9 °F 30.2 °F 87% 29.98 in 10.0 mi SSW 15.0 mph - 0.00 in   Overcast
9:45 AM 33.8 °F 23.5 °F 30.2 °F 87% 29.98 in 6.0 mi SSW 16.1 mph - 0.00 in   Overcast
10:05 AM 33.8 °F 23.5 °F 32.0 °F 93% 29.99 in 10.0 mi SSW 16.1 mph - 0.00 in   Overcast
10:25 AM 33.8 °F 23.5 °F 32.0 °F 93% 29.99 in 10.0 mi SSW 16.1 mph 23.0 mph 0.00 in   Overcast
10:45 AM 33.8 °F 23.5 °F 32.0 °F 93% 29.99 in 10.0 mi SW 16.1 mph - 0.00 in   Overcast
11:05 AM 33.8 °F 23.9 °F 32.0 °F 93% 29.99 in 10.0 mi SSW 15.0 mph - 0.00 in   Mostly Cloudy
11:25 AM 33.8 °F 24.8 °F 32.0 °F 93% 29.98 in 10.0 mi SSW 12.7 mph - 0.00 in   Overcast
11:45 AM 33.8 °F 24.3 °F 32.0 °F 93% 29.97 in 10.0 mi SW 13.8 mph - 0.00 in   Overcast
12:05 PM 33.8 °F 24.3 °F 32.0 °F 93% 29.96 in 10.0 mi SW 13.8 mph 20.7 mph 0.00 in   Overcast
12:25 PM 33.8 °F 24.3 °F 32.0 °F 93% 29.96 in 10.0 mi SW 13.8 mph - 0.00 in   Overcast
12:45 PM 33.8 °F 25.3 °F 32.0 °F 93% 29.96 in 10.0 mi SW 11.5 mph - 0.00 in   Overcast
1:05 PM 33.8 °F 25.8 °F 32.0 °F 93% 29.95 in 5.0 mi SW 10.4 mph - 0.00 in   Overcast
1:25 PM 33.8 °F 25.8 °F 32.0 °F 93% 29.95 in 3.0 mi SW 10.4 mph - 0.00 in   Overcast
1:45 PM 33.8 °F 26.4 °F 32.0 °F 93% 29.96 in 5.0 mi SW 9.2 mph - 0.00 in   Mostly Cloudy
2:05 PM 33.8 °F 24.8 °F 32.0 °F 93% 29.96 in 3.0 mi WSW 12.7 mph - 0.00 in   Overcast
2:25 PM 33.8 °F 23.9 °F 33.8 °F 100% 29.97 in 3.0 mi West 15.0 mph - 0.00 in   Overcast
2:45 PM 32.0 °F 22.1 °F 32.0 °F 100% 29.99 in 3.0 mi West 13.8 mph - 0.00 in   Mostly Cloudy
3:05 PM 32.0 °F 22.1 °F 30.2 °F 93% 30.01 in 5.0 mi West 13.8 mph - 0.00 in   Overcast
3:25 PM 30.2 °F 20.8 °F 30.2 °F 100% 30.02 in 7.0 mi West 11.5 mph - 0.00 in   Overcast
3:45 PM 30.2 °F 21.9 °F 28.4 °F 93% 30.04 in 6.0 mi West 9.2 mph 18.4 mph 0.00 in   Overcast
4:05 PM 30.2 °F 19.3 °F 28.4 °F 93% 30.06 in 5.0 mi West 15.0 mph 23.0 mph 0.00 in   Overcast
4:25 PM 28.4 °F 18.5 °F 26.6 °F 93% 30.07 in 8.0 mi West 11.5 mph - 0.00 in   Overcast
4:45 PM 28.4 °F 18.5 °F 24.8 °F 86% 30.08 in 7.0 mi West 11.5 mph - 0.00 in   Overcast
5:05 PM 26.6 °F 15.2 °F 23.0 °F 86% 30.10 in 7.0 mi West 13.8 mph 17.3 mph 0.00 in   Overcast
5:25 PM 26.6 °F 16.2 °F 23.0 °F 86% 30.11 in 6.0 mi West 11.5 mph - 0.00 in   Overcast
5:45 PM 26.6 °F 14.7 °F 23.0 °F 86% 30.11 in 7.0 mi West 15.0 mph - 0.00 in   Overcast
6:05 PM 26.6 °F 15.7 °F 23.0 °F 86% 30.13 in 7.0 mi West 12.7 mph 19.6 mph 0.00 in   Overcast
6:25 PM 26.6 °F 17.5 °F 23.0 °F 86% 30.14 in 7.0 mi West 9.2 mph - 0.00 in   Overcast
6:45 PM 26.6 °F 16.2 °F 23.0 °F 86% 30.15 in 7.0 mi West 11.5 mph - 0.00 in   Overcast
7:05 PM 26.6 °F 16.2 °F 23.0 °F 86% 30.16 in 7.0 mi West 11.5 mph - 0.00 in   Overcast
7:25 PM 26.6 °F 17.5 °F 23.0 °F 86% 30.18 in 6.0 mi West 9.2 mph - 0.00 in   Overcast
7:45 PM 26.6 °F 16.2 °F 23.0 °F 86% 30.19 in 5.0 mi West 11.5 mph - 0.00 in   Mostly Cloudy
8:05 PM 26.6 °F 16.8 °F 23.0 °F 86% 30.19 in 5.0 mi West 10.4 mph - 0.00 in   Mostly Cloudy
8:25 PM 26.6 °F 16.8 °F 23.0 °F 86% 30.20 in 5.0 mi West 10.4 mph - 0.00 in   Mostly Cloudy
8:45 PM 26.6 °F 17.5 °F 23.0 °F 86% 30.21 in 5.0 mi West 9.2 mph - 0.00 in   Scattered Clouds
9:05 PM 26.6 °F 16.8 °F 24.8 °F 93% 30.21 in 5.0 mi West 10.4 mph - 0.00 in   Scattered Clouds
9:25 PM 26.6 °F 17.5 °F 24.8 °F 93% 30.21 in 5.0 mi West 9.2 mph - 0.00 in   Scattered Clouds
9:45 PM 26.6 °F 17.5 °F 24.8 °F 93% 30.22 in 5.0 mi West 9.2 mph - 0.00 in   Scattered Clouds
10:05 PM 26.6 °F 18.2 °F 26.6 °F 100% 30.23 in 6.0 mi West 8.1 mph - 0.00 in   Partly Cloudy
10:45 PM 28.4 °F 19.7 °F 26.6 °F 93% 30.24 in 6.0 mi West 9.2 mph - 0.00 in   Partly Cloudy
11:05 PM 28.4 °F 20.4 °F 26.6 °F 93% 30.25 in 7.0 mi West 8.1 mph - 0.00 in   Scattered Clouds
11:25 PM 28.4 °F 21.2 °F 26.6 °F 93% 30.26 in 7.0 mi West 6.9 mph - 0.00 in   Mostly Cloudy
11:45 PM 28.4 °F 22.2 °F 26.6 °F 93% 30.27 in 7.0 mi West 5.8 mph - 0.00 in   Mostly Cloudy